Temperature
28 29 29 29 29 29 29 29 28 26 25 25 23 22 21 20 20 19 18 18 18 17 17 16 16 16 16 16 16 16 17 16 16 16 15 15 15 15 15 15 15 15 15 15
29 29 29 29 29 29 29 29 28 26 25 24 23 22 22 21 20 19 19 19 18 18 17 17 17 17 16 16 16 16 16 16 16 16 15 15 15 15 15 15 15 15 15 15
29 29 29 29 29 29 29 29 28 26 24 25 24 23 22 22 20 19 19 18 18 18 18 17 17 17 16 16 16 16 15 15 15 15 15 15 15 15 15 15 15 15 15 15
29 29 28 29 29 29 28 29 28 26 25 25 25 24 23 22 22 21 20 19 18 18 18 17 17 17 16 16 15 15 15 15 15 14 14 14 14 14 14 14 14 14 15 15
28 28 28 28 28 28 28 28 28 27 27 26 26 25 23 23 22 22 21 19 19 18 18 17 17 16 16 15 15 14 14 14 14 14 14 13 14 14 14 14 14 14 14 14
28 28 28 28 28 28 28 28 27 28 28 26 26 25 22 23 22 22 21 19 18 18 18 17 17 16 16 15 15 14 13 13 13 13 13 13 13 13 13 13 13 13 14 14
28 28 28 28 29 28 28 27 27 26 26 25 25 25 22 22 22 21 21 20 19 18 18 17 17 16 15 15 14 14 13 12 12 12 12 12 12 12 12 12 13 13 13 13
27 27 27 28 27 27 27 28 26 25 25 26 25 23 21 21 20 20 20 19 19 18 18 17 16 16 15 14 14 13 12 12 12 12 11 11 11 12 12 12 12 12 13 13
27 27 27 27 27 27 27 27 27 26 26 25 24 22 20 20 20 20 20 19 19 18 17 17 16 15 15 14 13 13 12 11 11 11 11 11 11 11 11 11 11 12 12 12
27 26 27 27 28 27 27 26 27 26 24 24 25 24 22 21 21 21 20 19 19 18 17 16 15 15 14 13 13 12 11 11 10 10 10 10 10 10 10 10 10 10 11 11
27 26 26 27 25 25 26 26 26 26 25 24 24 24 22 21 21 21 20 19 18 17 16 16 15 14 13 13 12 11 11 10 10 9 9 8 8 8 9 9 9 9 10 10
26 27 26 25 25 26 25 25 25 25 24 24 24 24 21 21 21 20 19 18 17 16 15 15 14 13 12 12 11 11 10 9 9 8 8 8 8 8 8 8 8 8 8 9
26 26 25 25 25 25 25 24 25 24 24 24 23 24 21 21 20 19 19 18 16 16 15 14 13 12 11 11 10 10 9 9 8 8 7 7 7 7 7 7 7 7 7 8
25 26 25 25 25 25 24 24 24 24 24 23 23 23 23 22 21 20 18 17 16 15 14 13 12 11 11 10 9 9 8 8 7 7 7 6 6 6 6 6 6 6 6 7
26 26 25 25 25 25 24 24 23 23 23 23 22 22 22 21 20 18 17 16 15 15 14 13 12 11 10 9 9 8 7 7 6 6 6 6 6 6 6 6 6 6 6 6
25 25 25 25 24 24 23 23 23 22 22 22 22 22 22 20 19 18 17 16 15 14 13 12 11 10 10 9 8 8 7 7 6 6 6 6 6 6 6 6 5 5 5 5
26 25 24 25 24 24 24 24 23 23 23 22 22 22 21 20 18 17 16 15 14 13 12 11 11 10 9 9 8 7 7 6 6 6 6 6 6 6 5 5 5 5 5 5
24 24 24 25 24 23 24 24 23 22 22 22 22 21 21 19 17 16 15 14 13 12 11 11 10 10 9 9 8 7 7 6 6 6 6 6 5 5 5 5 5 5 5 4
24 24 24 24 24 25 23 22 22 22 22 22 21 21 19 19 17 18 15 14 13 12 11 10 10 9 9 8 8 7 6 6 6 6 6 5 5 5 5 5 5 5 4 4
23 23 24 24 23 23 24 23 21 21 21 22 21 20 19 18 18 18 15 13 12 11 10 10 9 9 9 8 7 6 6 6 6 6 5 5 5 5 5 5 5 5 4 4
24 24 24 24 23 24 24 22 21 21 22 21 20 19 18 18 17 15 14 12 11 11 10 9 9 9 8 8 7 6 6 6 5 5 5 5 5 5 5 5 5 5 4 4
25 25 24 23 23 24 23 22 22 22 21 20 19 18 17 16 15 14 13 12 11 10 10 9 9 9 8 7 7 6 6 6 5 5 5 5 5 5 5 5 5 5 4 4
24 25 25 24 24 23 22 22 22 21 20 19 18 18 16 15 15 14 13 12 11 10 10 9 9 8 8 7 7 6 6 6 5 5 5 5 5 5 5 5 5 5 5 4
25 22 23 23 24 23 22 21 21 20 19 18 17 16 16 15 14 13 12 11 10 10 9 9 8 8 8 7 7 6 6 6 5 5 5 5 5 5 5 5 5 5 5 4
25 23 23 23 23 23 22 21 21 20 18 17 17 16 15 14 13 13 12 11 10 9 9 8 8 7 7 7 7 6 6 6 6 6 5 5 6 6 5 5 5 5 5 4
25 24 23 24 24 23 23 22 21 20 18 17 16 16 15 14 13 12 11 10 9 9 8 8 7 7 7 7 6 6 6 6 6 6 6 6 6 6 6 6 6 6 5 5
Wind_Speed
4 5 2 2 3 4 3 3 1 7 5 7 10 10 8 7 8 8 8 8 9 10 9 9 9 9 8 8 8 8 9 9 9 8 9 9 9 8 7 5 5 5 5 5
5 3 3 3 2 4 5 4 4 7 6 5 9 10 8 7 7 7 7 8 8 8 8 8 8 8 9 9 9 9 10 10 10 9 9 8 10 8 7 6 6 6 6 6
5 2 2 4 4 5 5 4 1 7 8 9 10 8 8 8 8 7 7 6 6 6 5 5 6 7 8 9 10 10 10 10 10 11 10 10 9 8 7 8 7 8 8 7
4 2 4 7 6 6 4 1 2 9 10 7 10 5 8 8 7 6 5 5 4 3 3 4 6 8 10 10 10 10 11 11 11 11 11 12 11 11 10 8 8 8 7 7
3 4 5 5 3 5 3 2 3 9 8 5 8 5 8 8 6 5 4 2 1 1 4 6 9 10 11 12 12 11 11 12 12 12 12 12 13 11 10 10 9 9 7 6
2 1 3 4 3 1 1 3 5 8 9 7 3 5 6 6 4 4 4 2 2 4 6 8 10 12 12 12 12 11 11 12 13 14 14 13 14 14 14 12 11 9 7 6
2 4 3 4 3 3 4 8 7 6 6 2 3 2 5 5 2 1 2 3 4 6 8 10 12 14 13 13 12 12 13 14 15 15 15 15 15 15 15 14 12 10 9 7
3 2 6 7 5 3 3 6 6 8 7 3 3 2 5 3 1 2 3 4 5 8 10 12 14 14 13 13 13 14 15 16 16 16 15 15 15 14 13 13 13 13 11 10
6 3 4 6 6 4 2 4 6 7 7 7 1 6 5 3 3 3 4 6 8 10 12 14 14 14 14 14 15 16 17 17 17 17 16 15 15 14 15 15 15 14 13 12
5 3 3 1 0 7 5 4 5 6 7 7 3 3 3 3 3 4 6 8 10 12 14 16 15 15 15 16 17 17 17 17 17 17 16 15 16 16 15 15 16 16 16 15
4 3 2 2 5 7 3 3 4 4 5 7 8 3 4 1 3 6 8 10 13 15 16 16 15 16 17 17 17 18 18 18 18 17 17 17 17 17 16 16 16 15 16 16
3 3 2 4 4 3 5 5 5 5 4 5 9 3 7 2 4 7 10 12 14 16 16 16 17 17 17 18 18 18 18 18 18 18 18 18 18 17 17 17 17 16 16 16
2 2 2 6 5 3 2 4 3 3 4 6 8 6 4 3 7 9 12 14 15 16 16 16 16 17 18 18 18 18 18 18 18 18 18 18 18 18 18 18 18 17 17 17
2 3 6 6 5 3 1 1 2 5 6 8 9 12 10 8 9 11 14 15 16 16 16 17 17 17 17 17 17 18 18 18 18 18 18 18 18 18 18 18 18 18 18 17
3 2 2 3 2 3 4 3 3 3 5 9 12 14 13 10 10 12 14 16 16 16 16 17 17 17 17 17 17 17 17 17 17 17 18 18 18 18 19 19 18 18 18 18
1 2 3 4 3 5 7 7 6 5 6 10 13 13 7 7 10 13 15 16 16 16 17 18 18 18 18 17 17 16 17 17 17 17 18 18 19 19 19 19 19 19 18 18
3 3 5 6 2 8 8 7 7 5 7 10 12 12 11 12 14 15 15 15 15 16 18 18 18 17 17 17 16 16 16 17 17 17 18 18 18 19 19 20 19 19 19 18
4 5 5 7 5 8 3 4 3 6 10 10 11 13 12 13 13 14 11 11 15 17 18 18 17 18 17 16 16 16 16 16 17 17 17 18 18 20 20 20 19 19 17 16
5 5 7 7 11 11 3 5 3 6 11 7 9 11 11 12 14 9 3 10 15 16 16 16 17 17 17 16 16 16 16 16 17 17 17 18 19 19 20 20 18 16 15 15
5 6 9 9 11 11 1 7 2 4 6 2 6 10 11 12 12 10 12 14 15 16 15 16 16 17 16 15 15 16 16 17 17 17 18 18 18 19 19 19 17 15 13 13
7 7 10 12 12 8 6 8 4 6 8 6 7 9 10 11 11 14 16 15 15 16 16 16 16 16 15 15 15 15 16 16 16 17 18 18 18 18 18 16 15 13 12 12
8 7 7 7 7 4 10 7 4 7 5 6 7 8 9 11 12 13 14 15 16 16 17 16 16 16 15 14 14 15 16 16 16 16 17 18 17 16 14 15 14 12 11 11
6 6 6 6 7 1 9 8 5 5 7 7 7 8 8 11 12 13 14 14 15 16 16 16 16 17 16 14 14 15 16 15 15 16 16 16 17 15 14 13 13 11 9 8
6 3 6 9 10 8 9 11 10 9 9 8 7 7 9 11 12 13 13 14 15 16 16 16 16 17 17 16 15 15 15 15 15 16 16 15 14 14 13 11 10 9 8 7
10 5 9 12 12 10 11 12 12 10 9 9 8 7 8 10 12 13 13 14 15 16 15 15 16 16 17 17 16 15 14 14 15 15 14 14 13 13 12 11 9 8 7 5
10 11 12 11 8 8 8 7 7 9 10 9 9 8 8 9 11 12 12 13 14 16 16 16 16 17 17 17 16 15 14 14 14 13 13 11 11 10 10 10 8 2 3 3
Wind_Direction
214 231 217 10 322 317 292 278 105 108 109 90 103 102 92 88 89 89 87 85 82 77 73 65 61 56 54 45 36 25 17 10 357 352 342 334 325 316 311 313 326 323 321 325
216 195 30 338 290 247 246 249 136 126 135 132 124 110 101 95 92 93 98 95 89 86 77 64 54 47 40 34 23 15 12 7 355 354 336 327 321 315 317 324 328 328 321 307
291 354 352 287 266 250 245 274 181 157 151 155 145 132 129 119 115 112 107 100 91 80 66 47 28 20 15 12 4 359 353 346 346 339 332 335 328 321 330 334 333 335 329 317
282 327 297 283 269 279 265 339 225 169 181 188 215 188 155 146 141 135 129 121 107 79 31 5 355 353 352 350 345 343 338 334 330 323 327 330 326 327 331 328 331 329 328 328
335 330 302 283 309 309 351 357 225 201 223 205 210 225 155 168 169 159 158 152 128 346 338 337 337 338 336 334 334 333 332 328 324 318 311 306 309 316 317 320 318 316 315 315
356 354 334 331 315 320 191 208 201 217 233 229 191 245 155 168 171 172 185 207 267 304 317 325 327 328 328 328 329 330 333 329 325 318 311 302 300 301 303 304 306 304 304 297
86 90 50 344 274 188 240 258 258 244 242 225 146 237 110 115 129 222 238 249 277 301 313 321 326 328 326 324 325 327 329 327 324 319 314 308 301 296 288 288 292 292 293 289
333 74 37 18 357 325 329 303 309 308 309 317 174 143 116 120 154 249 260 277 287 303 319 322 326 325 322 320 321 323 325 322 320 319 317 312 305 296 294 295 295 290 283 282
350 32 68 43 35 339 323 350 342 297 293 292 156 129 141 167 210 241 265 282 295 311 317 320 323 323 322 319 318 320 321 320 320 318 315 307 306 306 302 298 286 281 277 274
350 314 80 68 148 54 33 356 315 320 324 311 297 203 160 178 257 267 283 297 307 314 318 322 322 322 322 319 318 318 318 317 316 314 314 313 312 306 301 296 295 290 285 277
342 306 99 101 39 23 29 28 350 332 336 319 320 7 97 24 307 301 304 310 316 320 322 322 321 322 321 319 319 319 317 316 315 315 314 311 308 306 302 295 290 287 283 280
355 315 82 99 93 47 50 22 353 334 339 316 309 358 114 356 305 301 308 317 321 321 321 320 321 322 320 320 319 317 317 315 314 314 312 309 307 305 302 299 298 294 286 279
12 303 218 174 171 154 56 43 23 343 302 317 316 342 118 287 289 296 311 321 322 321 321 320 320 320 319 318 316 315 314 313 314 313 310 308 307 307 305 304 300 296 290 283
314 17 352 9 16 356 286 348 341 310 326 324 325 322 324 311 301 309 319 321 320 319 319 319 319 317 317 314 314 313 312 313 312 311 309 308 308 307 306 304 301 297 292 286
289 9 10 358 323 287 285 267 271 313 334 321 323 317 322 329 319 316 316 318 318 318 319 320 318 317 315 315 315 312 311 312 311 310 309 308 309 308 305 302 300 298 294 287
321 318 287 256 245 270 269 256 249 273 302 312 311 316 337 318 309 312 318 321 319 319 320 319 318 317 316 316 313 312 311 312 311 308 307 308 306 304 302 301 298 296 293 290
230 260 288 299 266 277 270 234 230 266 306 310 308 320 326 310 315 318 318 317 319 320 319 317 317 316 316 314 313 311 311 310 308 305 304 305 305 303 303 301 298 296 293 291
242 257 276 297 286 282 36 117 221 282 301 303 296 304 311 310 313 303 299 309 318 317 316 315 315 315 315 316 314 312 309 307 305 304 305 307 309 307 304 301 297 295 293 290
235 243 276 287 291 297 159 179 231 295 304 305 302 307 309 315 308 310 12 319 316 315 314 312 311 313 314 313 314 312 309 306 305 305 308 310 310 307 304 301 300 299 294 291
194 227 259 275 293 299 14 136 138 284 289 333 300 304 311 316 312 334 344 327 321 318 315 314 312 311 311 315 316 311 308 307 306 309 309 309 307 305 305 304 303 300 295 291
226 233 254 275 283 286 123 142 183 287 339 344 309 303 305 311 308 315 320 320 319 318 316 314 312 311 315 317 315 308 306 305 308 309 307 307 306 307 306 307 307 303 298 294
271 271 262 274 279 290 139 164 240 310 322 304 301 299 302 305 307 311 315 316 318 319 319 318 314 314 317 319 315 309 307 308 308 307 306 308 309 309 310 310 309 307 303 298
249 282 291 271 286 43 186 216 245 279 284 291 292 298 304 305 310 315 316 318 320 321 320 318 315 314 317 321 319 311 310 311 309 306 305 307 310 311 311 310 310 310 308 304
232 216 259 266 271 258 232 235 248 254 263 275 281 289 299 305 311 316 318 320 321 322 321 320 318 316 318 322 320 313 312 313 310 307 307 308 310 312 316 314 312 315 315 313
288 237 255 261 273 271 245 237 244 247 246 254 262 274 292 303 309 315 316 318 321 321 321 319 316 316 318 321 319 318 319 319 314 310 308 308 309 313 316 316 317 321 331 334
260 246 251 268 279 254 256 225 225 232 236 243 255 270 285 297 305 311 314 317 319 320 320 318 319 320 320 321 320 321 323 321 315 312 310 309 310 312 315 316 319 258 271 319
Height
1503 1499 1495 1494 1493 1494 1494 1495 1498 1506 1510 1511 1517 1523 1526 1528 1528 1529 1530 1531 1531 1531 1531 1530 1529 1528 1526 1524 1522 1520 1518 1515 1513 1510 1508 1505 1502 1498 1494 1490 1486 1484 1483 1482
1499 1497 1495 1495 1495 1495 1495 1495 1499 1507 1511 1513 1518 1523 1525 1528 1530 1530 1531 1532 1532 1533 1533 1532 1531 1529 1527 1525 1523 1520 1518 1515 1513 1510 1507 1504 1500 1497 1494 1491 1488 1486 1483 1481
1498 1495 1496 1495 1494 1494 1492 1493 1495 1504 1510 1511 1514 1522 1523 1526 1530 1532 1532 1533 1533 1533 1533 1532 1531 1529 1527 1525 1522 1520 1517 1514 1511 1508 1507 1504 1500 1497 1494 1490 1487 1485 1483 1481
1494 1494 1496 1494 1492 1491 1494 1489 1492 1500 1507 1507 1508 1519 1520 1522 1526 1529 1531 1533 1533 1534 1533 1532 1530 1528 1526 1524 1521 1518 1515 1512 1509 1507 1505 1502 1499 1496 1492 1489 1486 1483 1481 1479
1495 1496 1496 1495 1493 1492 1493 1491 1491 1494 1496 1501 1504 1509 1519 1519 1522 1525 1529 1531 1532 1532 1532 1530 1529 1527 1524 1522 1519 1516 1513 1510 1507 1504 1502 1499 1497 1494 1491 1488 1484 1481 1479 1477
1496 1497 1496 1494 1493 1493 1493 1494 1493 1491 1490 1505 1502 1507 1522 1517 1520 1523 1527 1530 1531 1531 1530 1529 1527 1525 1522 1519 1516 1513 1510 1507 1504 1501 1498 1496 1493 1490 1488 1485 1483 1480 1478 1476
1498 1496 1495 1494 1491 1491 1492 1495 1502 1505 1504 1506 1501 1506 1523 1519 1521 1523 1526 1528 1529 1529 1528 1527 1525 1522 1519 1516 1513 1510 1507 1503 1500 1497 1494 1492 1489 1486 1483 1482 1480 1477 1476 1474
1504 1503 1498 1496 1496 1494 1493 1493 1505 1515 1509 1501 1502 1511 1522 1522 1525 1526 1526 1527 1528 1527 1526 1524 1522 1519 1516 1513 1510 1507 1503 1499 1496 1493 1489 1486 1484 1482 1480 1478 1475 1474 1472 1471
1503 1505 1499 1500 1498 1495 1494 1494 1493 1499 1499 1506 1506 1516 1523 1524 1524 1524 1525 1525 1525 1525 1524 1522 1519 1516 1513 1510 1506 1503 1499 1495 1491 1487 1484 1481 1478 1476 1473 1471 1469 1468 1467 1466
1502 1506 1500 1500 1496 1499 1497 1498 1496 1501 1514 1514 1505 1508 1517 1519 1520 1521 1522 1522 1522 1522 1521 1518 1516 1513 1510 1506 1502 1499 1494 1490 1486 1482 1478 1475 1472 1469 1467 1464 1463 1461 1459 1459
1501 1505 1504 1501 1506 1506 1501 1502 1502 1501 1507 1516 1516 1511 1512 1516 1518 1519 1519 1520 1520 1519 1517 1515 1512 1509 1506 1502 1498 1494 1489 1485 1480 1476 1472 1468 1464 1462 1459 1457 1455 1453 1451 1450
1505 1502 1506 1508 1508 1506 1505 1507 1505 1511 1515 1513 1514 1512 1513 1516 1518 1519 1519 1519 1518 1517 1514 1511 1508 1505 1501 1497 1493 1489 1484 1480 1475 1471 1466 1462 1458 1454 1451 1449 1447 1445 1443 1442
1507 1508 1512 1512 1512 1508 1508 1509 1508 1509 1511 1512 1515 1513 1514 1515 1517 1517 1517 1517 1516 1514 1511 1508 1505 1501 1497 1493 1489 1484 1479 1475 1470 1465 1460 1456 1452 1448 1444 1441 1438 1436 1434 1432
1510 1508 1511 1515 1512 1508 1511 1512 1511 1509 1509 1513 1512 1512 1507 1509 1512 1514 1515 1515 1513 1511 1508 1505 1501 1498 1493 1489 1484 1479 1474 1469 1464 1460 1455 1451 1446 1442 1438 1434 1431 1428 1425 1423
1508 1508 1510 1509 1508 1508 1510 1512 1513 1513 1514 1515 1513 1511 1508 1509 1513 1514 1514 1512 1510 1507 1505 1501 1498 1493 1489 1484 1479 1474 1469 1464 1459 1455 1450 1445 1441 1436 1432 1428 1424 1420 1417 1414
1508 1509 1510 1511 1510 1510 1512 1512 1513 1514 1513 1512 1511 1508 1507 1511 1513 1512 1511 1510 1507 1505 1501 1498 1493 1489 1484 1479 1474 1469 1464 1460 1455 1450 1445 1440 1435 1430 1425 1421 1417 1413 1409 1406
1505 1510 1512 1508 1508 1511 1510 1506 1510 1511 1509 1511 1510 1508 1508 1509 1510 1510 1509 1507 1505 1502 1498 1494 1489 1485 1480 1475 1470 1465 1460 1455 1450 1446 1441 1435 1430 1425 1419 1414 1409 1405 1401 1397
1509 1510 1509 1506 1513 1521 1507 1504 1508 1510 1508 1506 1506 1506 1507 1509 1509 1507 1506 1505 1502 1499 1495 1490 1485 1481 1476 1471 1466 1461 1456 1451 1446 1441 1436 1430 1425 1419 1413 1407 1402 1397 1393 1389
1508 1509 1507 1507 1507 1502 1503 1506 1507 1508 1506 1503 1505 1505 1506 1505 1505 1499 1502 1502 1499 1495 1491 1487 1482 1477 1472 1467 1461 1456 1451 1446 1441 1436 1430 1425 1419 1412 1406 1400 1395 1390 1385 1381
1508 1507 1506 1505 1513 1513 1500 1502 1507 1509 1504 1502 1504 1504 1504 1503 1499 1497 1499 1498 1495 1491 1487 1482 1477 1472 1467 1462 1457 1451 1446 1441 1436 1430 1425 1419 1412 1406 1400 1394 1388 1383 1379 1374
1503 1504 1504 1502 1504 1495 1496 1503 1507 1507 1503 1502 1502 1502 1502 1501 1501 1499 1497 1494 1491 1486 1482 1477 1473 1468 1463 1458 1452 1446 1441 1436 1430 1424 1419 1413 1407 1401 1395 1388 1383 1378 1373 1369
1497 1497 1500 1501 1505 1499 1497 1501 1501 1500 1500 1500 1500 1500 1500 1499 1498 1496 1494 1490 1486 1482 1477 1473 1468 1463 1459 1453 1447 1441 1436 1430 1425 1419 1413 1407 1402 1396 1390 1384 1378 1374 1369 1364
1494 1492 1491 1493 1495 1494 1495 1495 1496 1497 1497 1497 1497 1497 1497 1496 1494 1492 1490 1486 1482 1478 1473 1468 1464 1458 1454 1449 1443 1437 1431 1425 1419 1413 1408 1402 1397 1391 1386 1380 1375 1370 1366 1362
1489 1495 1494 1492 1487 1490 1492 1492 1493 1494 1494 1494 1494 1494 1494 1493 1491 1489 1486 1482 1478 1474 1469 1464 1459 1454 1448 1443 1438 1432 1426 1420 1414 1408 1403 1398 1393 1387 1382 1377 1372 1368 1363 1360
1487 1490 1489 1489 1486 1486 1487 1488 1489 1489 1490 1490 1490 1491 1490 1489 1487 1485 1482 1479 1475 1470 1465 1460 1455 1450 1444 1439 1433 1428 1422 1416 1410 1404 1399 1394 1389 1384 1379 1374 1370 1366 1362 1358
1483 1484 1485 1482 1480 1482 1481 1483 1484 1485 1486 1486 1487 1487 1487 1486 1484 1482 1479 1475 1471 1467 1462 1456 1451 1446 1440 1434 1429 1424 1418 1412 1406 1400 1395 1390 1386 1381 1377 1372 1368 1364 1360 1357